Regional Weather Roundup
Issued by NWS Goodland, KS

Home | Current Version | Previous Version | Text Only | Print | Product List | Glossary On
Versions: 1 2 3 4 5 6 7 8 9 10 11 12 13 14 15 16 17 18 19 20 21 22 23 24 25 26 27 28 29 30 31 32 33 34 35 36 37 38 39 40 41 42 43 44 45 46 47 48 49 50
000
ASUS43 KGLD 211259
RWRGLD

GOODLAND FORECAST AREA HOURLY WEATHER ROUNDUP
NATIONAL WEATHER SERVICE GOODLAND KS
700 AM MDT TUE OCT 21 2014

...OFFICIAL OBSERVATIONS...

CITY           SKY/WX    TMP DP  RH WIND       PRES   REMARKS
GOODLAND KS    FOG       50  50 100 S13       30.07S VSB 1/4
HILL CITY KS   CLEAR     39  37  92 W3        30.08F
IMPERIAL NEB   CLEAR     53  48  83 SE9       30.03S
MCCOOK NEB     CLEAR     41  37  86 E3        30.06S
AKRON CO       CLEAR     50  47  89 S10       30.01F
BURLINGTON CO  CLEAR     50  48  93 S10       30.06S FOG
LIMON CO       FOG       35  35 100 CALM      30.08S VSB 1/2
$$

...UNOFFICIAL OBSERVATIONS...

CITY           SKY/WX    TMP DP  RH WIND       PRES   REMARKS
COLBY KS       CLEAR     46  43  87 S5        30.07S
GOVE KS          N/A     40  32  73 MISG        N/A
NORTON KS      CLEAR     43  37  81 CALM      30.06S
SHARON SPRINGS   N/A     53  51  95 S10         N/A
TRIBUNE KS     CLOUDY    57  57 100 S10       30.08F VSB 1/4
KIT CARSON CO    N/A     41  38  89 CALM        N/A
YUMA CO          N/A     51  48  89 S9          N/A
$$


USA.gov is the U.S. government's official web portal to all federal, state and local government web resources and services.